"Pseudo-MPEC" for P10LpfF

Created 2019 Jan 16 14:18:32 UT using Find_Orb

Click here for an explanation of pseudo-MPECs

 
 Astrometry: 
     P10LpfF  C2019 01 11R*B/!9oFE91AstrometryZoJ'F3\]3bl-0+XFt1)M;%6qs+=y(RnF51
     P10LpfF  C2019 01 11lZm8h$wF$r2aE'f[x_@oXsx0h+D]:kredacted;h`L[xn9u:=m$lF51
     P10LpfF  C2019 01 11VuTM=9KTS=BmCXk7K@Qih2G4@lQr\mmjt1)Fe6=b)`tNwEo(h7:jF51
     P10LpfF KC2019 01 129Q5-Bcr%/7SyfMN=MwFo4:_9Ov[j=tA,[=pSclickCYk9`D8L@DS291
     P10LpfF KC2019 01 12y38Z#/Ty62C9EherehR+3E29e0l]TnB8VALnU)$0(@E,w^Qfk7S6291
     P10LpfF KC2019 01 12A,iYc0_1fi5Pq/*po[/!GljoFy\^l#E[6.Evse?cojLSaB5Jw\Ji291
     P10LpfF ^C2019 01 12.66364311 03 21.986+15 39 24.03   ~1CJI 22.15GVNEOCP568
     P10LpfF ^C2019 01 12.66461411 03 21.738+15 39 25.72   ~1CJI 22.02GVNEOCP568
     P10LpfF ^C2019 01 12.66556511 03 21.494+15 39 27.37   ~1CJI 22.02GVNEOCP568
     P10LpfF |C2019 01 15v_Qutg]t=V9for6?/'lBhQlehpTYdlpWfF==Ak^$eV[YlThM^oh6807
     P10LpfF |C2019 01 15uS-S?TJ6O;OT[+i:Qw\Yx@(f0DthU[Y+5A^.ObE$Wt28Y!,dyBCw807
     P10LpfF |C2019 01 15JYs)d.Jpyd;explanationXBij4FugyqdP4jmpn+@(X#l@(I6[3R807

Station data:
(291) LPL/Spacewatch II  (N31.961669 W111.599905)  US/Arizona.  Observers J.
   V. Scotti, R. S. McMillan. 1.8-m f/2.7 reflector + CCD.
(568) Mauna Kea  (N19.826116 W155.472200)  US/Hawaii.
(807) Cerro Tololo Observatory, La Serena  (S30.169136 W70.805900)  Chile.
   1.5-m Ritchey-Chrétien.
(F51) Pan-STARRS 1, Haleakala  (N20.707235 W156.255910)  US/Hawaii.
   Observers N. Primak, A. Schultz, S. Watters, J. Thiel, T. Goggia. Measurer
   PS1 Science Consortium. 1.8-m Ritchey-Chrétien + CCD.

Orbital elements:  P10LpfF
   Perihelion 2018 Nov 23.865569 +/- 0.045 TT = 20:46:25 (JD 2458446.365569)
Epoch 2019 Jan 15.0 TT = JDT 2458498.5   Earth MOID: 0.0101   Ma: 0.0183
M  12.42405125 +/- 0.40             (J2000 ecliptic)          AutoNEOCP
n   0.23830798 +/- 0.00743          Peri.  321.65422 +/- 0.09
a   2.57658013 +/- 0.0536           Node    91.03116 +/- 0.052
e   0.6709851 +/- 0.00741           Incl.    3.22577 +/- 0.028
P   4.14                   H 24.0   G  0.15   U  9.4  
q 0.84773323 +/- 0.00144    Q 4.30542703 +/- 0.105
From 12 observations 2019 Jan. 11-15; mean residual 0".12
Residuals in arcseconds: 
190111 F51  .25-  .02+    190112 291  .18+  .24+    190112 568  .10-  .14-    
190111 F51  .25+  .04-    190112 291  .03+  .02+    190115 807  .01-  .01+    
190111 F51  .01+  .04+    190112 568  .10-  .11-    190115 807  .02-  .12+    
190112 291  .05+  .06+    190112 568  .09-  .12-    190115 807  .05+  .10-    

Ephemerides (geocentric):
Date (UTC) HH   RA              Dec         delta   r     elong  mag " sig PA
---- -- -- --  -------------   -----------  ------ ------ -----  --- ---- ---
2019 01 16 14  10 48 36.300   +17 24 32.47  .21734 1.1547 138.2 22.4 .792  72
2019 01 16 15  10 48 27.398   +17 25 32.45  .21759 1.1551 138.2 22.4 .814  73
2019 01 16 16  10 48 18.508   +17 26 32.29  .21784 1.1555 138.3 22.4 .836  73
2019 01 16 17  10 48 09.627   +17 27 32.00  .21809 1.1559 138.4 22.4 .858  74
2019 01 16 18  10 48 00.757   +17 28 31.58  .21835 1.1562 138.5 22.4 .880  74
2019 01 16 19  10 47 51.897   +17 29 31.01  .21860 1.1566 138.6 22.4 .903  75
2019 01 16 20  10 47 43.047   +17 30 30.31  .21885 1.1570 138.6 22.4 .926  75
2019 01 16 21  10 47 34.208   +17 31 29.48  .21910 1.1574 138.7 22.4 .949  76
2019 01 16 22  10 47 25.379   +17 32 28.51  .21936 1.1578 138.8 22.4 .973  76
2019 01 16 23  10 47 16.560   +17 33 27.40  .21961 1.1581 138.9 22.4 1.00  76
2019 01 17 00  10 47 07.752   +17 34 26.16  .21986 1.1585 138.9 22.4 1.02  77
2019 01 17 01  10 46 58.953   +17 35 24.79  .22012 1.1589 139.0 22.4 1.05  77
2019 01 17 02  10 46 50.165   +17 36 23.28  .22037 1.1593 139.1 22.4 1.07  78
2019 01 17 03  10 46 41.387   +17 37 21.64  .22062 1.1597 139.2 22.4 1.10  78
2019 01 17 04  10 46 32.619   +17 38 19.86  .22088 1.1601 139.3 22.4 1.12  78
2019 01 17 05  10 46 23.861   +17 39 17.95  .22113 1.1604 139.3 22.4 1.15  79
2019 01 17 06  10 46 15.113   +17 40 15.91  .22138 1.1608 139.4 22.4 1.17  79
2019 01 17 07  10 46 06.375   +17 41 13.74  .22164 1.1612 139.5 22.4 1.20  80
2019 01 17 08  10 45 57.648   +17 42 11.43  .22189 1.1616 139.6 22.4 1.23  80
2019 01 17 09  10 45 48.930   +17 43 08.99  .22215 1.1620 139.7 22.4 1.25  80
2019 01 17 10  10 45 40.222   +17 44 06.43  .22240 1.1623 139.7 22.4 1.28  80
2019 01 17 11  10 45 31.525   +17 45 03.72  .22266 1.1627 139.8 22.4 1.31  81
2019 01 17 12  10 45 22.837   +17 46 00.89  .22291 1.1631 139.9 22.4 1.34  81
2019 01 17 13  10 45 14.159   +17 46 57.93  .22317 1.1635 140.0 22.4 1.36  81
2019 01 17 14  10 45 05.491   +17 47 54.84  .22342 1.1639 140.0 22.4 1.39  82
2019 01 17 15  10 44 56.834   +17 48 51.61  .22368 1.1643 140.1 22.4 1.42  82
2019 01 17 16  10 44 48.186   +17 49 48.26  .22394 1.1646 140.2 22.4 1.45  82
2019 01 17 17  10 44 39.548   +17 50 44.77  .22419 1.1650 140.3 22.4 1.48  82
2019 01 17 18  10 44 30.919   +17 51 41.16  .22445 1.1654 140.4 22.4 1.51  83
2019 01 17 19  10 44 22.301   +17 52 37.42  .22471 1.1658 140.4 22.4 1.54  83
2019 01 17 20  10 44 13.693   +17 53 33.55  .22496 1.1662 140.5 22.4 1.57  83
2019 01 17 21  10 44 05.094   +17 54 29.55  .22522 1.1666 140.6 22.4 1.60  83
2019 01 17 22  10 43 56.505   +17 55 25.42  .22548 1.1669 140.7 22.4 1.63  84
2019 01 17 23  10 43 47.926   +17 56 21.16  .22573 1.1673 140.7 22.4 1.66  84
2019 01 18 00  10 43 39.357   +17 57 16.78  .22599 1.1677 140.8 22.4 1.69  84
2019 01 18 01  10 43 30.797   +17 58 12.27  .22625 1.1681 140.9 22.4 1.72  84
2019 01 18 02  10 43 22.247   +17 59 07.63  .22651 1.1685 141.0 22.4 1.75  84
2019 01 18 03  10 43 13.707   +18 00 02.87  .22676 1.1688 141.1 22.4 1.79  85
2019 01 18 04  10 43 05.177   +18 00 57.97  .22702 1.1692 141.1 22.5 1.82  85
2019 01 18 05  10 42 56.656   +18 01 52.95  .22728 1.1696 141.2 22.5 1.85  85
2019 01 18 06  10 42 48.145   +18 02 47.81  .22754 1.1700 141.3 22.5 1.88  85
2019 01 18 07  10 42 39.644   +18 03 42.54  .22780 1.1704 141.4 22.5 1.92  85
2019 01 18 08  10 42 31.152   +18 04 37.14  .22806 1.1708 141.4 22.5 1.95  86
2019 01 18 09  10 42 22.670   +18 05 31.62  .22832 1.1712 141.5 22.5 1.98  86
2019 01 18 10  10 42 14.197   +18 06 25.97  .22858 1.1715 141.6 22.5 2.02  86
2019 01 18 11  10 42 05.734   +18 07 20.20  .22884 1.1719 141.7 22.5 2.05  86
2019 01 18 12  10 41 57.281   +18 08 14.30  .22910 1.1723 141.7 22.5 2.09  86
2019 01 18 13  10 41 48.837   +18 09 08.28  .22936 1.1727 141.8 22.5 2.12  86